Weather in Taukent

Kazakhstan     43°51′48″N   68°45′25″E
temp.,
°C
wind,
m/s
gust,
m/s
humid.,
%
clouds,
%
prec.,
mm/h
press.,
hPa
HPBL,
m
8 august, mon
mon800:00+21ese114244 0.0 100746
03:00+19nw01434 0.0 100611
06:00+19sw22404 0.0 100613
09:00+23wsw24325 0.0 1007900
12:00+26wsw59267 0.0 10072564
15:00+27w710232 0.0 10062904
18:00+27wnw45213 0.0 10052993
21:00+23n46342 0.0 1007319
9 august, tue
tue900:00+21nnw33330 0.0 100850
03:00+20nnw22310 0.0 100719
06:00+18wnw113358 0.0 100711
09:00+23w232594 0.0 10081270
12:00+25w442060 0.0 10072690
15:00+27wsw6618100 0.0 10062753
18:00+26wsw572161 0.0 10063007
21:00+22nnw453733 0.0 1008629
10 august, wed
wed1000:00+20n344295 0.0 1008527
03:00+18nnw33531 0.0 100879
06:00+16nw22530 0.0 100929
09:00+19nnw22430 0.0 1010506
12:00+23nnw24300 0.0 10102027
15:00+24ne34261 0.0 10092002
18:00+23n65310 0.0 10091257
21:00+20n58390 0.0 1011720
11 august, thu
thu1100:00+18nne68520 0.0 1012535
03:00+16nne46560 0.0 1011239
06:00+15nne44530 0.0 101194
09:00+18nne56440 0.0 1012783
12:00+20nne55430 0.0 10121051
15:00+22n65360 0.0 10121385
18:00+22nne66370 0.0 10121352
21:00+20nne58430 0.0 1012507
12 august, fri
fri1200:00+18nne59490 0.0 1013325
03:00+17nne45540 0.0 1013126
06:00+16n45580 0.0 101391
09:00+19nne68460 0.0 1014915
12:00+23nne89380 0.0 10131370
15:00+25ne88310 0.0 10121612
18:00+25ne99280 0.0 10121665
21:00+22ne711330 0.0 1012511